Vertical_Velocity
0 1 1 1 -1 -0 -3 0 -1 1 -1 2 -2 1 0 2 -0 -0 0 -0 -2 -0 -0 -3 -0 1 -3 0 -2 -2 -2 -3 -3 -1 -1 0 1 1 1 -1 -0 -1 -2 -1 1 -0 -0 0 -1
-1 2 1 -1 0 -0 -1 0 -1 -3 -2 0 1 0 3 -1 3 0 1 -1 -2 -1 1 -2 -2 -1 -4 -1 1 -1 -2 -2 -2 -3 -2 0 -1 -1 -0 1 -1 -1 0 -0 -1 0 0 0 0
-1 0 -0 -0 -0 0 0 -1 -1 -1 -2 -1 -1 -1 1 2 2 -1 0 -0 0 0 2 1 -2 -2 -2 -2 -1 -0 0 -1 -1 -1 0 -0 0 -1 -2 -2 1 -2 -2 -1 -0 0 1 0 1
1 -0 1 -3 -1 0 1 0 2 1 -4 1 1 3 1 2 4 1 -0 1 -0 1 1 0 -2 -3 -1 -2 -2 -1 0 0 -2 -2 -2 -1 -0 -1 -2 -2 -2 -1 0 -2 -1 1 1 1 2
1 1 -0 -0 -2 1 1 1 3 -1 -2 1 2 1 1 2 3 2 -0 0 -1 0 1 -1 -2 -1 -3 -1 -2 -2 0 -0 -0 -2 -2 -2 -3 -1 0 -1 -2 -1 -3 -1 -1 -2 -0 1 2
-0 1 1 -0 0 1 -6 -2 1 1 -0 1 -3 -0 0 1 3 4 -0 -2 -1 -0 -1 -1 -0 -1 -1 -4 -2 -0 -2 -1 1 -1 -1 -3 -3 -1 0 2 1 0 -1 -3 0 -0 -1 -1 1
-2 0 3 2 -2 -2 -8 1 5 1 1 3 -2 -2 1 1 1 3 -1 -1 1 -1 -1 -1 -2 1 -1 -2 -3 -2 -1 -1 -1 1 -0 -2 -2 -1 -3 -0 1 0 -1 -2 0 0 -1 -3 -1
-2 -1 3 3 -3 -2 -6 -5 1 3 0 3 -1 -1 2 1 1 2 -1 1 1 -0 -1 -1 -2 -0 -1 -1 -0 -3 -1 -1 -1 0 1 -0 -1 -2 -1 -1 1 -0 1 0 -1 1 0 -2 -4
0 -4 4 4 -0 -4 -4 -6 -1 1 1 1 -1 -2 -1 0 0 0 -1 2 3 1 -2 0 0 -2 -0 -1 -1 -1 -2 -2 -1 -1 1 0 1 -2 -1 -3 -2 0 1 2 0 1 -0 -1 -3
-4 0 7 7 1 -9 -2 -6 -1 -0 -2 1 2 -0 -0 1 0 1 -0 -0 1 4 -1 -0 0 -0 -0 -0 -1 -1 -1 -3 -0 -1 -1 0 1 0 -1 -1 -3 -1 -1 2 1 -1 -2 -1 -2
-5 5 6 1 1 2 -5 -4 -5 -3 -3 -1 5 1 1 -1 -1 -0 -1 1 2 1 2 -1 1 -0 2 -0 -0 -1 -2 -2 -1 -0 -1 -1 -0 1 0 0 0 -2 -1 -1 2 1 1 3 -0
-6 7 3 7 1 3 -10 0 -6 -3 4 -1 2 5 1 -0 -2 0 0 -1 1 2 -0 2 0 -0 1 2 -0 -0 0 -2 -2 -1 -0 -1 -2 -1 -1 0 0 -0 -4 -2 -1 2 2 -2 -0
-8 8 -4 5 -3 3 3 -2 -8 -2 -2 -1 -0 3 3 1 -2 -3 2 0 -1 -0 -0 0 1 1 1 1 1 0 -1 0 -3 -2 -1 -0 -1 -2 -1 -0 -0 1 1 -1 -1 -1 0 2 0
-0 -2 2 4 -1 1 2 -0 -5 1 -5 0 2 2 2 5 2 -0 0 8 -2 -3 -1 4 0 -2 1 1 2 0 1 -0 0 -2 -3 -1 -0 0 -1 -1 -0 -1 -0 1 -1 -1 -0 -2 -1
-4 -3 2 2 5 -2 1 -9 -3 -2 -7 -2 -1 2 3 6 -0 6 -1 -1 10 0 -4 -4 -1 -0 1 2 1 0 0 1 0 1 1 -1 -2 -1 -1 -0 -0 -0 -1 1 0 1 -0 -0 0
-1 -8 -10 20 3 7 -6 13 4 7 -5 -5 -3 -1 -1 2 5 3 2 -2 -1 4 5 -1 0 1 2 1 2 -0 -1 0 -0 0 1 0 0 -0 -0 -0 -1 -1 0 1 1 0 0 -0 0
-9 -10 -7 5 2 0 -7 14 17 -2 2 2 -2 -1 -1 1 2 7 6 -3 -5 1 1 4 -0 1 -0 0 1 -0 -1 -0 -0 0 1 1 1 0 -0 -1 -1 0 1 -1 1 0 2 1 1
-1 5 3 7 6 2 -3 6 6 4 -6 9 1 -1 -2 -4 4 5 8 0 -2 -2 1 2 1 -0 0 0 0 0 -2 1 0 -1 -0 0 1 1 2 2 -2 -4 1 1 -1 -1 0 2 0
11 -0 2 5 8 -7 -1 -10 2 2 -22 -5 7 0 -9 -5 3 -1 4 3 -2 0 1 4 1 -1 2 -0 -1 -1 -1 1 0 1 0 -0 1 0 0 2 1 -0 -1 -1 1 2 1 2 -1
2 -1 -6 2 11 -10 3 -12 -1 -11 -5 -5 3 -0 3 -5 -5 1 -5 1 1 -5 -1 -0 3 2 0 1 -3 2 0 -0 -1 -1 -1 -2 -1 1 1 2 1 -0 1 -0 -2 -1 -0 2 0
0 -4 9 2 9 -3 9 -20 -8 6 -17 -5 -5 5 -4 4 4 2 -1 -4 -6 4 -3 -4 -0 1 1 -1 -1 0 2 1 0 -0 0 1 1 1 0 1 3 -0 -0 2 2 1 -0 0 -4
-4 17 9 4 5 -16 18 -49 -20 2 -7 -21 -4 -5 6 4 3 6 -0 5 0 2 2 -0 -1 2 -2 -1 -0 1 -1 2 -2 1 -2 -1 1 0 0 -0 -1 2 -2 2 -0 -2 4 -1 2
-8 -4 9 10 11 17 -2 -31 -0 -4 -20 -5 7 2 1 4 2 5 7 2 -1 1 2 4 -2 2 1 -2 0 -0 2 1 1 2 0 0 -2 -3 -2 -1 1 -0 -1 -2 1 -1 -3 -1 -1
24 3 12 13 14 -15 -17 -14 -30 -4 1 8 5 0 3 3 2 4 9 -5 3 -3 4 -1 2 5 3 4 -1 1 5 2 3 2 3 1 1 -2 -4 -4 -0 0 0 -1 -3 -2 -1 1 0
3 11 -9 -1 6 -93 45 17 -79 10 -4 4 3 5 3 1 1 11 -2 -0 1 0 1 0 -4 1 3 -1 -3 -2 5 1 2 1 2 1 2 1 -2 -3 -2 0 0 -2 -2 -5 -3 0 3
-3 25 12 -0 0 -32 52 -39 -99 -2 -4 -2 -9 6 0 7 8 12 2 -5 -3 2 4 1 1 -3 -1 4 2 -4 0 7 3 1 -0 3 1 -0 -0 0 -1 -1 1 2 2 2 1 -1 -1
7 -1 -3 22 16 -14 23 -26 -15 4 3 4 10 -2 8 5 6 13 -5 0 4 4 7 4 0 -0 -1 6 1 -3 2 4 1 -0 1 2 -0 -1 -1 -1 -1 -0 -1 -2 -1 -1 1 1 1
6 16 32 -33 -6 -25 -13 -23 -41 -3 8 15 4 10 18 11 -0 2 1 5 -0 3 3 5 3 3 -0 1 2 1 1 3 2 -3 -0 -0 1 -0 0 -1 1 2 0 0 1 1 -3 4 2
11 -19 1 -13 7 -17 -13 -47 -12 1 9 4 9 16 9 6 1 1 3 -6 1 6 2 3 3 1 -1 -0 -2 -0 3 0 -2 -1 -2 -0 -1 -2 -1 -0 -1 -3 0 -0 -1 -1 0 -1 -1
5 -11 15 22 2 1 -3 -35 -0 -11 -4 -14 -1 3 -2 4 5 6 -1 -1 -1 5 5 4 1 -1 2 2 3 2 2 -2 -1 -0 1 1 -0 -0 0 -2 -1 1 0 -0 -1 0 -1 -1 0
Height
5894 5895 5896 5896 5899 5896 5897 5900 5901 5901 5900 5899 5898 5897 5896 5894 5894 5895 5891 5889 5888 5887 5886 5885 5881 5878 5878 5877 5875 5874 5873 5873 5873 5873 5872 5871 5870 5869 5869 5868 5867 5867 5868 5869 5870 5870 5872 5873 5874
5893 5894 5895 5895 5896 5896 5896 5898 5900 5900 5900 5899 5899 5898 5897 5896 5895 5894 5892 5890 5889 5888 5887 5885 5883 5880 5880 5879 5878 5877 5876 5876 5875 5875 5874 5874 5873 5872 5872 5871 5870 5870 5871 5872 5872 5873 5873 5875 5876
5892 5893 5895 5894 5894 5895 5895 5896 5898 5899 5899 5899 5901 5900 5898 5898 5896 5895 5893 5891 5889 5889 5888 5885 5884 5882 5881 5880 5880 5879 5879 5878 5877 5877 5876 5876 5875 5875 5874 5874 5873 5873 5873 5873 5874 5875 5877 5878 5878
5890 5892 5894 5893 5892 5894 5895 5896 5897 5897 5897 5899 5900 5900 5899 5898 5897 5895 5894 5893 5892 5890 5889 5886 5884 5884 5883 5881 5881 5881 5880 5880 5879 5878 5878 5877 5877 5877 5877 5877 5876 5876 5876 5876 5877 5878 5878 5879 5880
5888 5890 5890 5892 5890 5892 5894 5895 5896 5897 5897 5898 5898 5899 5899 5898 5898 5897 5896 5895 5893 5891 5889 5887 5885 5885 5884 5883 5882 5881 5880 5881 5880 5880 5879 5879 5879 5879 5880 5879 5879 5878 5879 5879 5879 5880 5880 5881 5881
5884 5886 5888 5889 5889 5890 5890 5893 5894 5896 5898 5899 5897 5898 5900 5899 5899 5898 5898 5897 5894 5892 5891 5888 5887 5886 5885 5885 5884 5882 5882 5881 5881 5881 5881 5881 5881 5880 5881 5882 5882 5882 5881 5882 5883 5882 5882 5881 5882
5879 5883 5885 5887 5887 5886 5888 5890 5892 5894 5895 5898 5897 5897 5899 5899 5899 5899 5898 5897 5895 5893 5891 5889 5888 5887 5887 5886 5885 5884 5883 5882 5881 5882 5882 5883 5883 5882 5882 5883 5883 5884 5884 5885 5884 5885 5884 5883 5882
5874 5878 5881 5883 5883 5883 5885 5888 5890 5891 5893 5895 5896 5897 5899 5899 5898 5898 5898 5897 5895 5893 5891 5890 5889 5888 5887 5886 5886 5886 5885 5884 5883 5882 5882 5882 5883 5884 5884 5883 5884 5884 5885 5886 5886 5886 5884 5884 5884
5867 5872 5877 5880 5880 5879 5881 5885 5887 5888 5891 5893 5895 5896 5897 5897 5897 5897 5897 5896 5895 5893 5892 5891 5889 5889 5888 5887 5886 5886 5885 5884 5884 5883 5883 5883 5883 5884 5884 5885 5885 5885 5886 5887 5887 5887 5886 5885 5886
5859 5866 5871 5875 5875 5876 5877 5881 5883 5886 5887 5890 5893 5894 5895 5896 5896 5895 5896 5896 5895 5894 5893 5891 5890 5889 5889 5888 5887 5886 5885 5885 5884 5884 5884 5883 5884 5884 5885 5886 5887 5886 5887 5887 5887 5888 5887 5887 5887
5853 5860 5865 5868 5868 5872 5873 5874 5878 5881 5884 5887 5890 5892 5894 5894 5893 5893 5893 5895 5895 5894 5893 5891 5890 5889 5888 5888 5887 5886 5886 5885 5885 5884 5884 5884 5883 5884 5884 5884 5885 5887 5887 5887 5887 5887 5887 5888 5888
5846 5852 5857 5862 5863 5867 5869 5869 5873 5877 5881 5883 5886 5890 5891 5891 5891 5892 5893 5892 5893 5893 5892 5891 5889 5888 5887 5887 5887 5886 5885 5885 5885 5884 5884 5883 5883 5884 5884 5884 5884 5885 5886 5887 5887 5886 5886 5886 5887
5838 5845 5849 5853 5855 5860 5862 5866 5866 5871 5875 5878 5882 5884 5887 5889 5890 5890 5891 5891 5891 5891 5890 5889 5889 5888 5886 5886 5886 5885 5885 5884 5883 5883 5883 5882 5882 5882 5883 5883 5883 5883 5884 5885 5886 5885 5884 5884 5885
5829 5836 5842 5847 5849 5852 5855 5861 5860 5865 5868 5874 5877 5880 5882 5885 5886 5888 5887 5888 5888 5890 5889 5887 5887 5886 5885 5884 5884 5884 5884 5883 5882 5881 5881 5881 5881 5880 5880 5881 5881 5881 5881 5881 5882 5883 5883 5881 5881
5818 5825 5833 5840 5845 5844 5847 5853 5855 5861 5862 5866 5870 5874 5877 5880 5883 5885 5884 5884 5885 5886 5888 5886 5886 5885 5883 5883 5882 5882 5882 5881 5881 5880 5879 5878 5878 5878 5878 5877 5878 5878 5879 5878 5878 5879 5879 5880 5880
5809 5815 5823 5832 5837 5840 5837 5843 5850 5855 5854 5858 5863 5866 5871 5874 5877 5880 5881 5880 5880 5881 5884 5884 5883 5883 5882 5881 5881 5880 5880 5879 5879 5878 5877 5876 5876 5875 5874 5874 5874 5874 5874 5875 5875 5875 5875 5875 5876
5799 5806 5812 5820 5827 5829 5829 5832 5844 5846 5848 5851 5854 5858 5863 5867 5871 5875 5877 5876 5875 5877 5879 5881 5880 5880 5880 5879 5879 5878 5878 5877 5876 5876 5875 5874 5873 5872 5872 5871 5869 5869 5869 5870 5870 5870 5869 5869 5870
5794 5797 5802 5808 5818 5818 5821 5823 5834 5840 5843 5844 5846 5848 5855 5860 5864 5868 5870 5872 5872 5872 5873 5875 5876 5876 5876 5877 5877 5876 5875 5874 5873 5872 5872 5871 5870 5868 5868 5866 5865 5864 5864 5864 5863 5863 5863 5863 5862
5780 5784 5791 5798 5802 5803 5811 5814 5819 5826 5832 5838 5837 5841 5846 5852 5856 5858 5862 5865 5868 5868 5868 5870 5871 5871 5872 5872 5873 5873 5871 5870 5869 5868 5868 5867 5866 5865 5864 5862 5860 5857 5858 5858 5857 5857 5857 5857 5855
5765 5771 5778 5786 5789 5791 5797 5801 5804 5813 5823 5829 5832 5834 5838 5842 5846 5849 5852 5856 5860 5863 5863 5864 5865 5867 5866 5867 5867 5868 5867 5867 5866 5865 5864 5863 5862 5862 5860 5858 5856 5854 5851 5851 5851 5850 5850 5850 5848
5750 5757 5770 5776 5777 5778 5781 5783 5794 5803 5811 5818 5824 5829 5832 5833 5836 5839 5842 5845 5850 5854 5856 5858 5858 5860 5861 5860 5861 5862 5862 5862 5862 5861 5860 5859 5858 5857 5856 5854 5852 5850 5847 5846 5844 5843 5842 5841 5840
5736 5751 5759 5761 5760 5765 5764 5764 5779 5793 5800 5808 5816 5819 5823 5827 5831 5832 5833 5835 5839 5844 5849 5851 5852 5852 5852 5854 5855 5856 5856 5857 5856 5856 5856 5856 5854 5851 5850 5849 5848 5846 5843 5842 5840 5837 5834 5833 5833
5725 5736 5740 5743 5741 5743 5749 5752 5774 5782 5789 5801 5808 5810 5814 5818 5823 5824 5828 5831 5831 5832 5837 5840 5842 5844 5846 5847 5848 5848 5850 5850 5850 5851 5851 5851 5849 5847 5845 5843 5842 5841 5839 5837 5835 5832 5828 5826 5824
5712 5718 5721 5721 5719 5712 5742 5744 5757 5769 5784 5793 5799 5802 5805 5808 5813 5816 5821 5822 5823 5822 5824 5829 5834 5836 5837 5839 5840 5840 5842 5843 5843 5843 5844 5843 5843 5842 5839 5837 5836 5834 5832 5831 5829 5826 5822 5820 5817
5684 5695 5699 5697 5693 5698 5737 5726 5741 5758 5771 5781 5788 5792 5794 5796 5802 5808 5810 5812 5814 5814 5815 5819 5823 5825 5827 5828 5830 5832 5833 5834 5835 5835 5836 5836 5835 5833 5832 5830 5828 5826 5824 5822 5821 5819 5816 5813 5811
5671 5680 5682 5685 5685 5699 5713 5694 5726 5745 5759 5769 5771 5778 5783 5787 5793 5799 5800 5802 5804 5805 5807 5811 5812 5815 5817 5819 5821 5823 5825 5827 5826 5826 5826 5827 5825 5824 5823 5822 5821 5819 5817 5814 5811 5809 5808 5806 5803
5662 5653 5681 5673 5674 5681 5682 5694 5720 5733 5739 5754 5763 5770 5777 5780 5782 5788 5789 5791 5794 5797 5799 5802 5802 5803 5806 5809 5810 5814 5816 5817 5816 5816 5817 5817 5817 5816 5815 5813 5813 5812 5810 5807 5805 5802 5799 5797 5795
5636 5656 5657 5653 5652 5660 5666 5680 5697 5722 5732 5739 5750 5757 5764 5767 5770 5770 5776 5780 5783 5786 5789 5791 5792 5792 5794 5798 5801 5804 5806 5806 5807 5807 5808 5808 5807 5806 5804 5803 5802 5801 5799 5797 5795 5793 5790 5788 5786
5628 5627 5634 5641 5642 5645 5657 5662 5691 5709 5719 5723 5734 5744 5748 5753 5756 5757 5762 5766 5770 5775 5778 5779 5781 5782 5784 5788 5790 5792 5794 5795 5796 5797 5797 5797 5796 5795 5794 5792 5792 5791 5789 5787 5785 5783 5781 5779 5776
5611 5615 5624 5624 5631 5630 5638 5646 5676 5689 5699 5708 5714 5725 5733 5738 5741 5744 5750 5754 5758 5761 5764 5768 5768 5771 5775 5777 5779 5781 5782 5783 5785 5785 5786 5786 5785 5784 5783 5783 5782 5780 5779 5776 5775 5773 5770 5767 5765